Chatham, MA

12:16 AM EDT on May 25, 2017 (GMT -0400)
Chatham Municipal

Weather History for KCQX - August, 2014

Change the Weather History Date:

Monday, August 25, 2014

  Actual Average Record
Temperature  
Mean Temperature 66 °F -  
Max Temperature 78 °F 73 °F 82 °F (2007)
Min Temperature 57 °F 60 °F 48 °F (2004)
Cooling Degree Days 1    
Growing Degree Days 16 (Base 50)    
Moisture  
Dew Point 58 °F    
Average Humidity 74    
Maximum Humidity 97    
Minimum Humidity 56    
Precipitation  
Precipitation 0.00 in - - ()
Sea Level Pressure  
Sea Level Pressure 30.15 in    
Wind  
Wind Speed 4 mph (SSW)    
Max Wind Speed 9 mph    
Max Gust Speed -    
Visibility 10 miles    
Events      
Averages and records for this station are not official NWS values.
T = Trace of Precipitation, MM = Missing Value Source: NWS Daily Summary

Daily Weather History Graph

Daily Weather History Graph

Search for Another Location

Airport or City:

Trip Planner

Search our weather history database for the weather conditions in past years. The results will help you decide how hot, cold, wet, or windy it might be!

Date:

Astronomy

Aug. 25, 2014 Rise Set
Actual Time 5:58 AM EDT 7:24 PM EDT
Civil Twilight 5:29 AM EDT 7:53 PM EDT
Nautical Twilight 4:54 AM EDT 8:28 PM EDT
Astronomical Twilight 4:17 AM EDT 9:05 PM EDT
Moon 6:01 AM EDT 7:12 PM EDT
Length of Visible Light 14h 23m
Length of Day
13h 25m
New Moon, 0% of the Moon is Illuminated
Aug 25
New Moon
Sep 2
First Quarter
Sep 8
Full
Sep 15
Last Quarter
Sep 24
New

Hourly Weather History & Observations

Time (EDT) Temp. Dew Point Humidity Pressure Visibility Wind Dir Wind Speed Gust Speed Precip Events Conditions
1:52 AM 57.9 °F 55.9 °F 93% 30.14 in 9.0 mi Calm Calm - N/A   Clear
2:52 AM 57.9 °F 57.0 °F 97% 30.14 in 10.0 mi Calm Calm - N/A   Clear
3:52 AM 60.1 °F 57.9 °F 93% 30.14 in 10.0 mi Calm Calm - N/A   Mostly Cloudy
4:52 AM 60.1 °F 57.9 °F 93% 30.13 in 10.0 mi Calm Calm - N/A   Mostly Cloudy
5:52 AM 63.0 °F 62.1 °F 97% 30.14 in 10.0 mi Variable 4.6 mph - N/A   Clear
6:52 AM 66.0 °F 63.0 °F 90% 30.14 in 10.0 mi SW 5.8 mph - N/A   Mostly Cloudy
7:52 AM 69.1 °F 63.0 °F 81% 30.15 in 10.0 mi SW 8.1 mph - N/A   Clear
8:52 AM 72.0 °F 62.1 °F 71% 30.15 in 10.0 mi SSW 9.2 mph - N/A   Clear
10:52 AM 73.0 °F 61.0 °F 66% 30.17 in 10.0 mi SW 8.1 mph - N/A   Clear
11:52 AM 75.9 °F 61.0 °F 60% 30.17 in 10.0 mi SSW 6.9 mph - N/A   Clear
12:52 PM 75.9 °F 59.0 °F 56% 30.17 in 10.0 mi SW 9.2 mph - N/A   Clear
1:52 PM 75.0 °F 60.1 °F 60% 30.16 in 10.0 mi SSW 6.9 mph - N/A   Clear
2:52 PM 73.9 °F 57.9 °F 57% 30.15 in 10.0 mi Variable 6.9 mph - N/A   Clear
3:52 PM 72.0 °F 57.9 °F 61% 30.15 in 10.0 mi Variable 5.8 mph - N/A   Clear
4:52 PM 71.1 °F 55.9 °F 59% 30.14 in 10.0 mi South 6.9 mph - N/A   Clear
5:52 PM 66.9 °F 54.0 °F 63% 30.15 in 10.0 mi SSE 9.2 mph - N/A   Clear
6:52 PM 66.0 °F 54.0 °F 65% 30.15 in 10.0 mi South 4.6 mph - N/A   Clear
7:52 PM 64.0 °F 55.0 °F 73% 30.17 in 10.0 mi South 3.5 mph - N/A   Clear
8:52 PM 63.0 °F 55.0 °F 75% 30.18 in 10.0 mi South 4.6 mph - N/A   Clear
11:52 PM 61.0 °F 53.1 °F 75% 30.17 in 10.0 mi Calm Calm - N/A   Clear